SCP
0 0 0 0 0 0 0 0 0 0 0 0 0 0 0 0 0 0 0 0 0 0 0 0 0 0 0 0 0 0 0 0 0 0 0 0 0 0 0 0 -0 0 0 0
0 0 0 0 0 0 0 0 0 0 0 0 0 0 0 0 0 0 0 0 0 0 0 0 0 0 0 0 0 0 0 0 0 0 0 0 0 -0 -0 -0 0 0 0 0
0 0 0 0 0 0 0 0 0 0 0 0 0 0 0 0 0 0 0 0 0 0 0 0 0 0 0 0 0 0 0 0 0 0 0 0 0 -0 -0 -0 0 0 0 0
0 0 0 0 0 0 0 0 0 0 0 0 0 0 0 0 0 0 0 0 0 0 0 0 0 0 0 0 0 0 0 0 0 0 0 0 0 0 -0 0 0 0 0 0
0 0 0 0 0 0 0 0 0 0 0 0 0 0 0 0 0 -0 0 0 0 0 0 0 0 0 0 0 0 0 0 0 0 0 0 0 0 -0 0 0 0 0 0 0
0 0 0 0 0 0 0 0 0 0 0 0 0 0 0 0 0 0 0 0 0 0 0 0 0 0 0 0 0 0 0 0 0 0 0 0 0 0 0 0 0 0 0 0
0 0 0 0 0 0 0 0 0 0 0 0 0 0 0 0 0 0 0 0 0 0 0 0 0 0 0 0 0 0 0 0 0 0 0 0 0 0 0 0 0 0 0 0
0 0 0 0 0 0 0 0 0 0 0 0 0 0 0 0 0 0 0 0 0 0 0 0 0 0 0 0 0 0 0 0 0 0 0 0 0 0 0 0 0 0 0 0
0 0 0 0 0 0 0 0 0 0 0 0 0 0 0 0 0 0 0 0 0 0 0 0 0 0 0 0 0 0 0 0 0 0 0 0 0 0 0 0 0 0 0 0
0 0 0 0 0 0 0 0 0 0 0 0 0 0 0 0 0 0 0 0 0 0 0 0 0 0 0 0 0 0 0 0 0 0 0 0 0 0 0 0 0 0 0 0
0 0 0 0 0 0 0 0 0 0 0 0 0 0 0 0 0 0 0 0 0 0 0 0 0 0 0 0 0 0 0 0 0 0 0 0 0 0 0 0 0 0 0 0
0 0 0 0 0 0 0 0 0 0 0 0 0 0 0 0 0 0 0 0 0 0 0 0 0 0 0 0 0 0 0 0 0 0 0 0 0 0 0 0 0 0 0 0
0 0 0 0 0 0 0 0 0 0 0 0 0 0 0 0 0 0 0 0 0 0 0 0 0 0 0 0 0 0 0 0 0 0 0 0 0 0 0 0 0 0 0 0
0 0 0 0 0 0 0 0 0 0 0 0 0 0 0 0 0 0 0 0 0 0 0 0 0 0 0 0 0 0 0 0 0 0 0 0 0 0 0 0 0 0 0 0
0 0 0 0 0 0 0 0 0 0 0 0 0 0 0 0 0 0 0 0 0 0 0 0 0 0 0 0 0 0 0 0 0 0 0 0 0 0 0 0 0 0 0 0
0 0 0 0 0 0 0 0 0 0 0 0 0 0 0 0 0 0 0 0 0 0 0 0 0 0 0 0 0 0 0 0 0 0 0 0 0 0 0 0 0 0 0 0
0 0 0 0 0 0 0 0 0 0 0 0 0 0 0 0 0 0 0 0 0 0 0 0 0 0 0 0 0 0 0 0 0 0 0 0 0 0 0 0 0 0 0 0
0 0 0 0 0 0 0 0 0 0 0 0 0 0 0 0 0 0 0 0 0 0 0 0 0 0 0 0 0 0 0 0 0 0 0 0 0 0 0 0 0 0 0 0
0 0 0 0 0 0 0 0 0 0 0 0 0 0 0 0 0 0 0 0 0 0 0 0 0 0 0 0 0 0 0 0 0 0 0 0 0 0 0 0 0 0 0 0
0 0 0 0 0 0 0 0 0 0 0 0 0 0 0 0 0 0 0 0 0 0 0 0 0 0 0 0 0 0 0 0 0 0 0 0 0 0 0 0 0 0 0 0
0 0 0 0 0 0 0 0 0 0 0 0 0 0 0 0 0 0 0 0 0 0 0 0 0 0 0 0 0 0 0 0 0 0 0 0 0 0 0 0 0 0 0 0
0 0 0 0 0 0 0 0 0 0 0 0 0 0 0 0 0 0 0 0 0 0 0 0 0 0 0 0 0 0 0 0 0 0 0 0 0 0 0 0 0 0 0 0
0 0 0 0 0 0 0 0 0 0 0 0 0 0 0 0 0 0 0 0 0 0 0 0 0 0 0 0 0 0 0 0 0 0 0 0 0 0 0 0 0 0 0 0
0 0 0 0 0 0 0 0 0 0 0 0 0 0 0 0 0 0 0 0 0 0 0 0 0 0 0 0 0 0 0 0 0 0 0 0 0 0 0 0 0 0 0 0
0 0 0 0 0 0 0 0 0 0 0 0 0 0 0 0 0 0 0 0 0 0 0 0 0 0 0 0 0 0 0 0 0 0 0 0 0 0 0 0 0 0 0 0
0 0 0 0 0 0 0 0 0 0 0 0 0 0 0 0 0 0 0 0 0 0 0 0 0 0 0 0 0 0 0 0 0 0 0 0 0 0 0 0 0 0 0 0
Wind_Speed_500mb
2 5 13 18 15 5 6 8 15 11 9 8 17 26 43 34 46 53 62 73 85 93 83 74 69 61 53 45 33 25 22 20 22 28 34 41 46 47 48 52 58 64 67 68
6 17 14 7 8 9 7 7 16 15 2 12 21 31 29 36 33 56 59 69 88 85 89 85 79 70 59 46 37 31 26 21 24 29 37 46 52 53 55 59 61 64 66 67
14 6 12 10 8 8 9 11 10 14 10 10 15 15 14 15 25 49 59 66 70 85 94 92 88 81 66 56 43 34 25 21 25 30 38 46 53 59 63 67 69 69 69 70
13 5 13 8 11 17 9 10 6 7 9 8 9 21 8 16 22 13 38 53 69 72 79 93 98 88 76 59 46 36 28 23 26 33 41 49 56 61 63 70 73 73 73 73
15 15 10 10 15 16 12 5 4 2 4 7 8 9 12 7 17 40 19 52 58 69 77 89 102 93 75 59 48 37 29 27 29 35 43 50 56 60 67 74 79 80 78 76
12 2 11 13 5 6 8 4 8 7 4 4 13 16 9 12 18 16 14 26 33 48 66 75 85 86 75 61 49 38 30 29 31 37 45 51 56 63 71 74 78 80 82 82
3 10 4 6 7 5 6 11 8 9 4 17 8 6 26 14 26 21 20 32 37 40 53 67 78 89 80 66 50 40 33 30 33 41 48 51 57 63 69 73 78 82 84 84
10 19 17 11 14 14 12 16 11 15 8 28 2 18 15 25 34 38 36 34 34 40 52 61 73 91 82 63 49 39 34 31 36 42 47 51 56 62 67 72 77 80 83 87
13 16 5 4 3 5 10 10 4 6 5 6 11 16 14 19 24 20 39 35 46 47 52 58 70 89 78 62 47 39 35 34 37 43 48 51 57 62 68 72 75 80 83 88
9 10 2 2 4 6 8 8 8 4 6 13 23 29 27 28 21 22 16 32 40 41 47 56 69 88 73 59 47 41 37 34 38 43 48 52 57 61 67 72 75 78 81 85
8 6 2 7 19 23 6 7 1 3 10 12 11 25 10 16 18 22 20 34 42 42 48 57 69 84 71 59 49 43 35 34 38 44 47 53 58 63 66 72 75 80 83 85
15 10 15 30 3 7 6 15 22 13 14 6 5 46 7 12 16 15 22 36 42 40 45 57 67 84 74 62 51 39 35 34 39 43 48 54 59 64 68 72 76 79 84 87
19 8 9 16 5 4 14 15 12 4 2 24 12 49 6 14 14 26 26 30 38 44 52 58 64 87 79 64 50 39 34 35 39 43 49 53 58 64 69 74 78 80 85 90
40 15 22 38 26 12 12 23 32 43 30 29 61 65 90 39 46 54 50 61 65 61 62 63 74 92 78 60 49 37 34 36 37 42 47 53 59 65 71 75 79 82 85 90
18 26 27 47 58 11 15 32 34 41 61 36 72 56 89 52 54 59 58 61 52 58 63 73 85 94 76 61 47 37 33 32 36 41 47 53 59 66 72 76 79 83 85 88
9 26 24 46 48 19 20 66 34 48 66 45 62 74 77 57 87 73 81 64 58 59 68 71 78 92 76 59 44 34 28 28 32 40 45 52 60 66 71 76 80 82 85 88
16 12 8 47 25 14 16 64 62 63 67 53 55 90 74 60 58 54 64 57 64 64 61 67 80 91 71 54 42 30 24 24 29 37 44 51 59 66 71 76 80 81 85 89
17 12 11 29 8 30 54 50 34 43 65 59 62 69 71 58 86 42 58 60 59 57 56 64 74 79 62 46 32 22 18 20 27 35 43 52 61 67 70 74 76 78 83 87
38 22 22 22 34 49 49 47 14 17 58 51 38 59 63 76 28 53 81 67 64 61 59 62 73 70 52 37 24 14 13 19 28 38 46 55 61 67 68 72 74 77 84 87
37 41 39 34 32 43 59 71 22 8 46 100 54 62 49 14 14 39 46 45 53 52 58 62 76 61 45 32 21 10 10 18 29 41 51 58 61 63 63 68 71 74 80 87
8 18 45 47 42 30 51 19 22 19 63 17 38 43 30 23 37 17 15 36 43 49 57 74 66 53 41 29 18 9 8 19 33 43 50 55 58 60 60 62 66 72 79 85
35 19 18 18 23 42 19 19 44 66 77 47 27 43 47 64 49 39 32 44 54 62 76 69 61 50 39 29 19 8 9 21 33 42 47 48 50 53 56 60 64 69 75 83
31 38 31 25 15 13 34 44 101 109 84 41 39 48 55 56 53 49 52 58 68 81 78 68 58 50 40 30 19 7 10 22 32 40 43 43 44 47 51 58 64 69 73 77
29 33 33 38 41 49 59 76 85 86 103 77 67 58 53 59 56 58 60 72 82 81 74 67 59 50 42 31 18 7 10 22 31 36 39 41 43 42 46 53 60 63 68 74
33 19 39 43 51 51 74 99 104 86 82 86 85 68 63 63 65 71 72 83 88 82 73 63 56 48 38 27 17 8 12 20 28 33 34 35 40 44 45 47 56 58 56 53
36 44 30 32 53 41 62 116 82 79 89 99 88 75 75 73 78 77 79 92 87 85 76 67 59 48 37 28 19 10 12 20 25 28 31 34 38 42 47 53 46 46 53 55
Wind_Direction_500mb
69 101 207 220 197 182 182 202 236 244 242 236 239 248 271 264 233 238 233 231 233 234 229 224 222 219 219 225 236 251 270 295 316 326 328 330 333 334 330 329 334 329 328 328
46 237 212 133 141 171 187 237 261 284 298 191 264 255 264 263 252 241 238 231 236 233 228 221 218 217 220 228 234 248 263 291 310 322 328 331 330 331 331 332 331 326 325 324
176 212 118 146 163 183 221 198 238 238 328 248 305 262 233 272 255 254 251 252 250 240 234 222 216 217 219 224 233 245 257 283 303 320 325 326 327 330 333 332 329 325 325 327
235 206 176 173 215 158 246 208 238 273 20 250 21 293 244 245 287 241 249 245 247 241 236 232 222 217 219 223 231 238 250 277 305 319 323 326 327 328 329 326 323 323 324 324
240 171 174 190 215 167 228 133 157 104 214 5 232 264 253 26 266 267 263 259 252 248 242 233 224 221 220 224 231 235 247 274 301 314 319 323 324 323 326 324 321 320 319 322
252 289 179 207 87 156 127 90 68 62 79 278 228 194 214 184 212 251 256 258 261 256 244 236 233 220 219 222 228 235 249 276 301 312 318 321 322 323 321 318 316 317 321 322
272 211 176 160 113 42 95 68 317 323 348 246 143 209 255 235 235 230 258 277 280 264 244 234 227 213 213 217 225 235 248 270 295 308 316 320 320 319 318 318 318 319 321 322
190 275 179 176 196 181 174 172 170 236 236 286 246 244 267 231 259 262 257 268 273 256 244 238 230 215 213 217 225 236 251 275 296 308 314 317 316 317 316 317 318 318 319 319
179 265 99 50 91 114 180 192 167 82 124 333 234 270 281 265 268 265 263 261 255 250 243 237 226 215 213 217 227 239 254 279 297 306 312 313 316 315 317 317 318 319 320 320
234 288 65 102 107 35 177 169 82 10 266 264 264 276 255 244 251 245 244 239 258 249 242 236 227 213 212 219 229 243 258 281 296 306 310 315 315 316 317 318 320 320 319 320
145 150 249 129 205 174 141 218 92 163 165 209 282 272 206 214 214 230 231 237 252 243 241 237 228 212 213 221 230 241 261 280 297 304 310 313 316 318 319 320 322 321 322 323
192 160 233 238 360 343 280 204 176 200 228 231 129 269 231 181 190 223 236 252 249 245 245 238 231 209 212 221 230 240 261 284 297 303 310 314 319 320 322 324 325 325 324 325
177 213 256 281 55 6 220 200 223 304 175 213 188 258 109 200 227 248 232 240 251 261 241 235 224 210 215 219 226 241 263 283 294 304 311 317 319 321 325 326 327 328 327 325
169 180 196 235 233 129 184 219 218 221 244 237 233 258 269 263 274 277 271 270 266 253 240 234 216 212 214 216 225 241 264 280 294 307 315 318 321 325 326 326 327 327 327 324
175 236 226 244 256 179 208 241 213 213 235 233 254 246 256 262 263 269 280 278 257 248 240 233 220 210 209 212 223 241 261 281 299 311 317 321 325 325 326 327 327 326 326 324
195 241 253 258 258 195 244 255 235 225 243 248 257 264 261 273 276 278 276 274 252 247 246 235 219 209 206 210 221 238 260 283 300 310 320 325 325 327 327 327 327 327 327 328
172 187 191 251 255 126 263 246 239 251 250 235 248 254 277 273 266 266 270 255 252 253 244 228 219 207 202 208 219 233 255 282 304 317 324 326 328 327 327 328 329 330 330 333
191 200 198 250 90 229 250 266 230 234 257 245 245 259 261 261 269 270 266 257 250 243 233 222 214 198 199 206 218 234 262 296 316 323 328 330 330 330 332 332 331 332 334 335
220 215 241 233 233 254 285 255 173 187 266 254 230 246 253 261 290 279 269 260 254 248 232 218 203 191 194 201 209 234 285 315 324 330 333 334 333 332 335 334 335 338 336 337
230 229 237 239 242 244 249 271 181 111 271 265 217 244 246 139 246 261 270 254 231 221 213 198 183 184 186 192 200 224 290 322 333 337 338 336 334 335 338 336 341 340 340 340
163 210 226 235 245 247 253 133 133 190 252 143 196 221 225 199 219 244 222 209 213 205 190 178 177 179 181 184 191 215 299 331 337 338 338 336 335 338 339 341 344 346 345 344
220 192 214 233 252 257 204 167 208 239 255 256 210 216 200 219 219 218 201 193 188 181 173 176 174 175 177 180 190 213 315 338 338 337 336 337 338 340 342 344 348 351 348 348
237 212 223 199 210 230 196 222 226 238 248 243 231 227 224 219 208 200 194 188 180 177 174 176 178 175 177 183 187 208 320 334 335 337 335 337 343 346 347 349 353 354 353 354
224 227 227 242 244 249 243 240 238 234 232 238 242 234 220 214 209 200 192 186 180 179 179 178 178 178 181 182 189 229 316 329 334 337 334 340 345 350 356 357 356 0 357 357
221 171 220 244 247 248 255 252 247 239 238 232 237 233 225 219 210 205 193 188 184 181 181 182 184 185 184 185 197 235 307 326 333 333 335 342 347 349 0 7 1 2 5 353
212 216 209 226 228 217 246 253 248 239 230 233 231 228 227 224 214 200 195 189 187 184 182 183 186 187 189 195 205 236 300 320 331 334 338 346 348 356 358 357 8 13 11 9
Wind_Speed_850mb
2 5 13 18 15 5 6 8 15 11 9 8 17 26 43 34 46 53 62 73 85 93 83 74 69 61 53 45 33 25 22 20 22 28 34 41 46 47 48 52 58 64 67 68
6 17 14 7 8 9 7 7 16 15 2 12 21 31 29 36 33 56 59 69 88 85 89 85 79 70 59 46 37 31 26 21 24 29 37 46 52 53 55 59 61 64 66 67
14 6 12 10 8 8 9 11 10 14 10 10 15 15 14 15 25 49 59 66 70 85 94 92 88 81 66 56 43 34 25 21 25 30 38 46 53 59 63 67 69 69 69 70
13 5 13 8 11 17 9 10 6 7 9 8 9 21 8 16 22 13 38 53 69 72 79 93 98 88 76 59 46 36 28 23 26 33 41 49 56 61 63 70 73 73 73 73
15 15 10 10 15 16 12 5 4 2 4 7 8 9 12 7 17 40 19 52 58 69 77 89 102 93 75 59 48 37 29 27 29 35 43 50 56 60 67 74 79 80 78 76
12 2 11 13 5 6 8 4 8 7 4 4 13 16 9 12 18 16 14 26 33 48 66 75 85 86 75 61 49 38 30 29 31 37 45 51 56 63 71 74 78 80 82 82
3 10 4 6 7 5 6 11 8 9 4 17 8 6 26 14 26 21 20 32 37 40 53 67 78 89 80 66 50 40 33 30 33 41 48 51 57 63 69 73 78 82 84 84
10 19 17 11 14 14 12 16 11 15 8 28 2 18 15 25 34 38 36 34 34 40 52 61 73 91 82 63 49 39 34 31 36 42 47 51 56 62 67 72 77 80 83 87
13 16 5 4 3 5 10 10 4 6 5 6 11 16 14 19 24 20 39 35 46 47 52 58 70 89 78 62 47 39 35 34 37 43 48 51 57 62 68 72 75 80 83 88
9 10 2 2 4 6 8 8 8 4 6 13 23 29 27 28 21 22 16 32 40 41 47 56 69 88 73 59 47 41 37 34 38 43 48 52 57 61 67 72 75 78 81 85
8 6 2 7 19 23 6 7 1 3 10 12 11 25 10 16 18 22 20 34 42 42 48 57 69 84 71 59 49 43 35 34 38 44 47 53 58 63 66 72 75 80 83 85
15 10 15 30 3 7 6 15 22 13 14 6 5 46 7 12 16 15 22 36 42 40 45 57 67 84 74 62 51 39 35 34 39 43 48 54 59 64 68 72 76 79 84 87
19 8 9 16 5 4 14 15 12 4 2 24 12 49 6 14 14 26 26 30 38 44 52 58 64 87 79 64 50 39 34 35 39 43 49 53 58 64 69 74 78 80 85 90
40 15 22 38 26 12 12 23 32 43 30 29 61 65 90 39 46 54 50 61 65 61 62 63 74 92 78 60 49 37 34 36 37 42 47 53 59 65 71 75 79 82 85 90
18 26 27 47 58 11 15 32 34 41 61 36 72 56 89 52 54 59 58 61 52 58 63 73 85 94 76 61 47 37 33 32 36 41 47 53 59 66 72 76 79 83 85 88
9 26 24 46 48 19 20 66 34 48 66 45 62 74 77 57 87 73 81 64 58 59 68 71 78 92 76 59 44 34 28 28 32 40 45 52 60 66 71 76 80 82 85 88
16 12 8 47 25 14 16 64 62 63 67 53 55 90 74 60 58 54 64 57 64 64 61 67 80 91 71 54 42 30 24 24 29 37 44 51 59 66 71 76 80 81 85 89
17 12 11 29 8 30 54 50 34 43 65 59 62 69 71 58 86 42 58 60 59 57 56 64 74 79 62 46 32 22 18 20 27 35 43 52 61 67 70 74 76 78 83 87
38 22 22 22 34 49 49 47 14 17 58 51 38 59 63 76 28 53 81 67 64 61 59 62 73 70 52 37 24 14 13 19 28 38 46 55 61 67 68 72 74 77 84 87
37 41 39 34 32 43 59 71 22 8 46 100 54 62 49 14 14 39 46 45 53 52 58 62 76 61 45 32 21 10 10 18 29 41 51 58 61 63 63 68 71 74 80 87
8 18 45 47 42 30 51 19 22 19 63 17 38 43 30 23 37 17 15 36 43 49 57 74 66 53 41 29 18 9 8 19 33 43 50 55 58 60 60 62 66 72 79 85
35 19 18 18 23 42 19 19 44 66 77 47 27 43 47 64 49 39 32 44 54 62 76 69 61 50 39 29 19 8 9 21 33 42 47 48 50 53 56 60 64 69 75 83
31 38 31 25 15 13 34 44 101 109 84 41 39 48 55 56 53 49 52 58 68 81 78 68 58 50 40 30 19 7 10 22 32 40 43 43 44 47 51 58 64 69 73 77
29 33 33 38 41 49 59 76 85 86 103 77 67 58 53 59 56 58 60 72 82 81 74 67 59 50 42 31 18 7 10 22 31 36 39 41 43 42 46 53 60 63 68 74
33 19 39 43 51 51 74 99 104 86 82 86 85 68 63 63 65 71 72 83 88 82 73 63 56 48 38 27 17 8 12 20 28 33 34 35 40 44 45 47 56 58 56 53
36 44 30 32 53 41 62 116 82 79 89 99 88 75 75 73 78 77 79 92 87 85 76 67 59 48 37 28 19 10 12 20 25 28 31 34 38 42 47 53 46 46 53 55
Wind_Direction_850mb
69 101 207 220 197 182 182 202 236 244 242 236 239 248 271 264 233 238 233 231 233 234 229 224 222 219 219 225 236 251 270 295 316 326 328 330 333 334 330 329 334 329 328 328
46 237 212 133 141 171 187 237 261 284 298 191 264 255 264 263 252 241 238 231 236 233 228 221 218 217 220 228 234 248 263 291 310 322 328 331 330 331 331 332 331 326 325 324
176 212 118 146 163 183 221 198 238 238 328 248 305 262 233 272 255 254 251 252 250 240 234 222 216 217 219 224 233 245 257 283 303 320 325 326 327 330 333 332 329 325 325 327
235 206 176 173 215 158 246 208 238 273 20 250 21 293 244 245 287 241 249 245 247 241 236 232 222 217 219 223 231 238 250 277 305 319 323 326 327 328 329 326 323 323 324 324
240 171 174 190 215 167 228 133 157 104 214 5 232 264 253 26 266 267 263 259 252 248 242 233 224 221 220 224 231 235 247 274 301 314 319 323 324 323 326 324 321 320 319 322
252 289 179 207 87 156 127 90 68 62 79 278 228 194 214 184 212 251 256 258 261 256 244 236 233 220 219 222 228 235 249 276 301 312 318 321 322 323 321 318 316 317 321 322
272 211 176 160 113 42 95 68 317 323 348 246 143 209 255 235 235 230 258 277 280 264 244 234 227 213 213 217 225 235 248 270 295 308 316 320 320 319 318 318 318 319 321 322
190 275 179 176 196 181 174 172 170 236 236 286 246 244 267 231 259 262 257 268 273 256 244 238 230 215 213 217 225 236 251 275 296 308 314 317 316 317 316 317 318 318 319 319
179 265 99 50 91 114 180 192 167 82 124 333 234 270 281 265 268 265 263 261 255 250 243 237 226 215 213 217 227 239 254 279 297 306 312 313 316 315 317 317 318 319 320 320
234 288 65 102 107 35 177 169 82 10 266 264 264 276 255 244 251 245 244 239 258 249 242 236 227 213 212 219 229 243 258 281 296 306 310 315 315 316 317 318 320 320 319 320
145 150 249 129 205 174 141 218 92 163 165 209 282 272 206 214 214 230 231 237 252 243 241 237 228 212 213 221 230 241 261 280 297 304 310 313 316 318 319 320 322 321 322 323
192 160 233 238 360 343 280 204 176 200 228 231 129 269 231 181 190 223 236 252 249 245 245 238 231 209 212 221 230 240 261 284 297 303 310 314 319 320 322 324 325 325 324 325
177 213 256 281 55 6 220 200 223 304 175 213 188 258 109 200 227 248 232 240 251 261 241 235 224 210 215 219 226 241 263 283 294 304 311 317 319 321 325 326 327 328 327 325
169 180 196 235 233 129 184 219 218 221 244 237 233 258 269 263 274 277 271 270 266 253 240 234 216 212 214 216 225 241 264 280 294 307 315 318 321 325 326 326 327 327 327 324
175 236 226 244 256 179 208 241 213 213 235 233 254 246 256 262 263 269 280 278 257 248 240 233 220 210 209 212 223 241 261 281 299 311 317 321 325 325 326 327 327 326 326 324
195 241 253 258 258 195 244 255 235 225 243 248 257 264 261 273 276 278 276 274 252 247 246 235 219 209 206 210 221 238 260 283 300 310 320 325 325 327 327 327 327 327 327 328
172 187 191 251 255 126 263 246 239 251 250 235 248 254 277 273 266 266 270 255 252 253 244 228 219 207 202 208 219 233 255 282 304 317 324 326 328 327 327 328 329 330 330 333
191 200 198 250 90 229 250 266 230 234 257 245 245 259 261 261 269 270 266 257 250 243 233 222 214 198 199 206 218 234 262 296 316 323 328 330 330 330 332 332 331 332 334 335
220 215 241 233 233 254 285 255 173 187 266 254 230 246 253 261 290 279 269 260 254 248 232 218 203 191 194 201 209 234 285 315 324 330 333 334 333 332 335 334 335 338 336 337
230 229 237 239 242 244 249 271 181 111 271 265 217 244 246 139 246 261 270 254 231 221 213 198 183 184 186 192 200 224 290 322 333 337 338 336 334 335 338 336 341 340 340 340
163 210 226 235 245 247 253 133 133 190 252 143 196 221 225 199 219 244 222 209 213 205 190 178 177 179 181 184 191 215 299 331 337 338 338 336 335 338 339 341 344 346 345 344
220 192 214 233 252 257 204 167 208 239 255 256 210 216 200 219 219 218 201 193 188 181 173 176 174 175 177 180 190 213 315 338 338 337 336 337 338 340 342 344 348 351 348 348
237 212 223 199 210 230 196 222 226 238 248 243 231 227 224 219 208 200 194 188 180 177 174 176 178 175 177 183 187 208 320 334 335 337 335 337 343 346 347 349 353 354 353 354
224 227 227 242 244 249 243 240 238 234 232 238 242 234 220 214 209 200 192 186 180 179 179 178 178 178 181 182 189 229 316 329 334 337 334 340 345 350 356 357 356 0 357 357
221 171 220 244 247 248 255 252 247 239 238 232 237 233 225 219 210 205 193 188 184 181 181 182 184 185 184 185 197 235 307 326 333 333 335 342 347 349 0 7 1 2 5 353
212 216 209 226 228 217 246 253 248 239 230 233 231 228 227 224 214 200 195 189 187 184 182 183 186 187 189 195 205 236 300 320 331 334 338 346 348 356 358 357 8 13 11 9